Overview Statistics Trail Chart Weather Telemetry Raw packets
 

This is the latest recevied weather packets stored in our database for station/object N4ASP-13. If no packets are shown the sender has not sent any weather packets the latest 10 day(s).

<< 559 560 561 562 563 564 565 >>
Time Temp. Humidity Pressure Rain* Wind** Luminosity Snow
1787783198 25.56° C 77% 1018.1 hPa 0 mm - 102 W/m² -
1787783137 25.56° C 77% 1018 hPa 0 mm - 109 W/m² -
1787783074 25.56° C 77% 1018.2 hPa 0 mm - 113 W/m² -
1787783014 25.56° C 77% 1018.1 hPa 0 mm - 120 W/m² -
1787782954 25.56° C 77% 1018.2 hPa 0 mm - 127 W/m² -
1787782894 25.56° C 77% 1018.2 hPa 0 mm - 139 W/m² -
1787782831 26.11° C 77% 1018.2 hPa 0 mm - 178 W/m² -
1787782760 26.11° C 78% 1018.2 hPa 0 mm - 223 W/m² -
1787782701 26.11° C 78% 1018.2 hPa 0 mm - 278 W/m² -
1787782639 26.11° C 78% 1018.3 hPa 0 mm - 279 W/m² -
1787782580 26.11° C 78% 1018.3 hPa 0 mm - 302 W/m² -
1787782521 26.11° C 78% 1018.2 hPa 0 mm - 320 W/m² -
1787782454 26.11° C 77% 1018.3 hPa 0 mm - 353 W/m² -
1787782394 26.11° C 78% 1018.2 hPa 0 mm - 343 W/m² -
1787782333 25.56° C 78% 1018.2 hPa 0 mm - 369 W/m² -
1787782275 25.56° C 77% 1018.2 hPa 0 mm - 397 W/m² -
1787782215 25.56° C 78% 1018.2 hPa 0 mm - 387 W/m² -
1787782147 26.11° C 76% 1018.1 hPa 0 mm - 401 W/m² -
1787782087 26.11° C 77% 1018.1 hPa 0 mm - 413 W/m² -
1787782028 26.11° C 78% 1018.2 hPa 0 mm - 411 W/m² -
1787781968 26.11° C 77% 1018.2 hPa 0 mm - 404 W/m² -
1787781909 26.11° C 76% 1018.2 hPa 0 mm - 346 W/m² -
1787781845 26.11° C 75% 1018.2 hPa 0 mm - 336 W/m² -
1787781787 26.11° C 76% 1018.2 hPa 0 mm - 269 W/m² -
1787781726 26.11° C 76% 1018.2 hPa 0 mm - 230 W/m² -

* Rain latest hour (hover to see other rain measurements)
** Current wind speed in m/s (hover to see current wind gust speed)